Preview of NWS' New Version of Forecast
This preview is not operational and should not be used for support decisions.
Latest weather observations around

Bar Harbor, Hancock County-Bar Harbor Airport (KBHB)

Using International System of Units (Switch to English Units)
Date/ Time (EST) Wind (kph) Vis. (km) Weather Sky Cond. Temp (°C) Rel. Humidity Wind Chill (°C) Heat Index (°C) Pressure Precip. (cm)
Air Dwpt 6 hour Altimeter (hPa) Sea level (hPa) 1 hr 3 hr 6 hr
Max Min
Feb 23 06:56 Calm 16.09 Clear   -8 -11     83%     1031.5 1032      
Feb 23 05:56 Calm 16.09 Clear CLR -8 -10     84%     1031.2 1031.4      
Feb 23 00:56 NW 8 16.09 Clear CLR -4 -9     68% -8   1030.5 1031      
Feb 22 21:56 NNW 15 16.09 Clear CLR -2 -9     60% -7   1028.5 1028.7      
Feb 22 18:56 WNW 8 16.09 Clear CLR -1 -8     58% -4   1026.8 1027.3      
Feb 22 17:56 WNW 8 16.09 Clear CLR 0 -8     56% -3   1026.1 1026.5      
Feb 22 16:56 WNW 8 16.09 Clear CLR 1 -9     47% -1   1025.1 1025.5      
Feb 22 15:56 9 16.09 Clear CLR 2 -9     42% -1   1024.4 1024.7      
Feb 22 14:56 NNW 11 16.09 Clear CLR 2 -9     42% -1   1024.1 1024.3      
Feb 22 13:56 8 16.09 Clear CLR 2 -9     45% -1   1023.7 1024      
Feb 22 11:56 NW 18 16.09 Clear CLR 1 -9     47% -4   1024.1 1024.4      
Feb 22 08:56 9 16.09 Partly Cloudy SCT029 -1 -8     58% -4   1023.4 1023.8      
Feb 22 07:56 Calm 16.09 Clear CLR -2 -7     66%     1022.7 1023.1      
Feb 22 04:56 NNW 15 16.09 Mostly Cloudy BKN037 -2 -8     65% -7   1019 1019.4      
Feb 22 03:56 NW 15 16.09 Mostly Cloudy BKN047 -2 -6     72% -6   1018.3 1018.7      
Feb 22 02:56 NW 21 16.09 Cloudy OVC047 -1 -6     66% -6   1016.6 1017.1      
Feb 21 23:56 WNW 11 16.09 Light Rain SCT030 SCT036 OVC060 1 -1     88% -3   1012.2 1012.7 0    
Feb 21 22:56 5 16.09 Unknown Precipitation FEW043 OVC049 0 -1     96% -2   1011.9 1012.3 0    
Feb 21 21:56 SW 8 16.09 Partly Cloudy FEW047 SCT080 -1 -2     96% -4   1010.8 1011.4      
Feb 21 19:56 Calm 16.09 Mostly Cloudy SCT049 BKN070 -1 -1     96%     1009.2 1009.6      
Feb 21 18:56 Calm 16.09 Mostly Cloudy BKN065 -1 -2     96%     1008.5 1008.8     0
Feb 21 17:56 SSW 8 16.09 Mostly Cloudy FEW039 SCT046 BKN065 1 0     96% -2   1008.1 1008.4      
Feb 21 16:56 SSW 9 16.09 Cloudy OVC050 1 1     96% -2   1007.5 1007.8      
Feb 21 16:26 SW 9 16.09 Cloudy FEW003 OVC060 2 1     93% -1   1007.1        
Feb 21 15:56 SW 11 16.09 Cloudy OVC003 2 1     92% -2   1007.1 1007.3   0  
Feb 21 15:13 SW 13 4.83 Fog/Mist OVC003 2 1     93% -2   1006.8        
Feb 21 14:56 SSW 13 2.01 Fog/Mist OVC003 1 0     92% -3   1006.8 1007.2 0    
Feb 21 14:35 SSW 13 2.82 Unknown Precipitation and Fog/Mist OVC003 1 0     93% -3   1007.1   0    
Feb 21 13:56 SSW 15 16.09 Cloudy OVC003 1 0     92% -3   1007.5 1007.7 0    
Feb 21 13:44 SSW 15 14.48 Light Rain OVC003 2 0     87% -2   1007.1   0    
Feb 21 13:13 SSW 17 6.44 Light Rain and Fog/Mist BKN005 OVC010 1 0     93% -3   1007.5   0    
Feb 21 12:56 SSW 11 3.22 Unknown Precipitation and Fog/Mist BKN005 OVC009 1 0     92% -2   1007.8 1008.3 0   0
Feb 21 12:27 SSW 15 2.01 Light Snow and Fog/Mist OVC005 1 0     93% -3   1007.8   0    
Feb 21 12:18 SSW 11 1.21 Light Snow and Fog/Mist BKN005 OVC008 1 -1     86% -2   1008.1   0    
Feb 21 11:56 SSW 9 2.01 Light Snow and Fog/Mist BKN005 OVC010 1 0     92% -2   1008.1 1008.5 0    
Feb 21 11:49 S 9 2.01 Light Snow and Fog/Mist BKN005 OVC010 1 0     93% -2   1008.1   0    
Feb 21 11:38 S 9 4.02 Unknown Precipitation and Fog/Mist BKN007 OVC012 2 0     87% -1   1008.5   0    
Feb 21 10:56 S 13 4.83 Light Snow and Fog/Mist OVC007 2 0     88% -2   1009.2 1009.5 0    
Feb 21 10:16 S 13 3.22 Light Snow and Fog/Mist OVC005 1 -1     86% -3   1009.8   0    
Feb 21 10:11 S 17 1.61 Light Snow and Fog/Mist OVC005 1 -1     86% -3   1009.8   0    
Feb 21 09:56 ESE 5 1.61 Light Snow and Fog/Mist OVC007 1 -1     88% -1   1010.2 1010.5 0 0  
Feb 21 09:51 SE 5 1.61 Light Snow and Fog/Mist OVC007 1 -1     86% -1   1010.2   0    
Feb 21 09:32 Calm 1.21 Light Snow and Fog/Mist BKN009 OVC015 0 -2     86%     1010.5   0    
Feb 21 09:24 Calm 1.61 Light Snow and Fog/Mist SCT009 OVC015 0 -2     86%     1010.8   0    
Feb 21 09:13 Calm 1.21 Light Snow and Fog/Mist BKN013 OVC021 0 -2     86%     1011.5   0    
Feb 21 09:10 Calm 1.21 Light Snow and Fog/Mist SCT013 OVC019 0 -2     86%     1011.5   0    
Feb 21 08:56 Calm 1.61 Light Snow and Fog/Mist BKN018 BKN023 OVC027 -1 -2     92%     1011.9 1012.1 0    
Feb 21 08:46 ESE 5 1.61 Light Snow and Fog/Mist BKN022 OVC029 -2 -3     93% -4   1011.9   0    
Feb 21 08:24 Calm 2.82 Light Snow and Fog/Mist FEW022 BKN029 OVC039 -3 -3     100%     1012.5   0    
Feb 21 07:47 Calm 2.41 Light Snow and Fog/Mist SCT021 SCT029 OVC037 -4 -4     100%     1013.9   0    
Feb 21 07:34 Calm 1.61 Light Snow and Fog/Mist OVC021 -4 -5     93%     1013.9   0    
Feb 21 07:19 ENE 5 2.01 Light Snow and Fog/Mist OVC023 -4 -6     86% -6   1014.2   0    
Feb 21 06:56 Calm 1.61 Light Snow and Fog/Mist BKN019 OVC023 -5 -6     96%     1014.9 1015.4 0   1
Feb 21 06:46 Calm 1.21 Light Snow and Fog/Mist BKN018 OVC023 -5 -6     93%     1015.2   0    
Feb 21 06:40 Calm 2.01 Light Snow and Fog/Mist FEW013 OVC023 -5 -6     93%     1015.2   0    
Feb 21 06:30 Calm 1.21 Light Snow and Fog/Mist BKN015 OVC019 -5 -6     93%     1015.6   0    
Feb 21 05:56 Calm 2.41 Light Snow and Fog/Mist BKN019 OVC025 -5 -6     92%     1016.6 1016.9 0    
Feb 21 05:39 Calm 2.82 Clear   -5 -6     93%     1016.9        
Feb 21 05:33 Calm 3.22 Clear   -5 -6     93%     1016.9        
Feb 21 05:25 Calm 2.01 Clear   -5 -6     93%     1016.9        
Feb 21 05:08 Calm 1.61 Clear   -5 -6     93%     1017.3        
Feb 21 05:01 Calm 2.01 Clear   -5 -6     93%     1017.3        
Feb 21 04:56 Calm 1.61 Clear   -5 -6     96%     1017.3 1017.8      
Feb 21 04:40 E 5 0.8 Snow and Fog OVC007 -5 -6     93% -7   1018   0    
Feb 21 04:12 Calm 1.21 Light Snow and Fog/Mist OVC007 -6 -7     93%     1018.6   0    
Feb 21 03:56 Calm 0.8 Snow and Fog OVC007 -6 -7     88%     1019 1019.4 0 0  
Feb 21 03:22 N 5 0.8 Snow and Fog OVC009 -6 -7     93% -9   1019.7   0    
Feb 21 03:14 NNE 5 1.21 Light Snow and Fog/Mist OVC011 -6 -7     93% -9   1020   0    
Feb 21 02:56 NE 5 1.61 Light Snow and Fog/Mist OVC011 -6 -7     92% -8   1020.7 1021 0    
Feb 21 02:52 Calm 1.61 Light Snow and Fog/Mist OVC011 -6 -7     93%     1020.7   0    
Feb 21 02:38 E 5 1.21 Light Snow and Fog/Mist BKN009 OVC014 -6 -7     93% -9   1021   0    
Feb 21 02:27 E 5 1.61 Light Snow BKN014 OVC023 -5 -8     79% -7   1021.3   0    
Feb 21 02:21 9 2.82 Light Snow SCT016 OVC023 -5 -8     79% -9   1021.3   0    
Feb 21 02:16 11 4.83 Light Snow FEW016 BKN023 OVC033 -4 -9     68% -8   1021.3   0    
Feb 21 01:56 SE 8 16.09 Cloudy FEW028 BKN041 OVC050 -4 -11     60% -7   1022 1022.4 0    
Feb 21 00:56 Calm 14.48 Light Snow FEW055 OVC070 -5 -9     71%     1023.4 1023.6 0   0
Feb 20 23:56 Calm 16.09 Cloudy BKN100 OVC120 -6 -10     71%     1025.1 1025.5      
Feb 20 21:56 Calm 16.09 Clear   -7 -12     68%     1027.4 1027.7      
Feb 20 20:56 Calm 16.09 Clear CLR -6 -12     62%     1028.1 1028.6      
Feb 20 19:56 SW 5 16.09 Clear CLR -6 -14     50% -8   1029.1 1029.5      
Feb 20 18:56 SW 5 16.09 Clear CLR -6 -16     47% -9   1029.8 1030.1      
Feb 20 17:56 Calm 16.09 Clear CLR -6 -15     48%     1029.8 1030.2      
May 15 02:38 Calm 4.83 Fog/Mist SCT008 7 7     100%     1011.5        
May 13 23:56 SSW 22 16.09 Cloudy OVC004 7 6     96% 3   1019.3 1019.6      
May 13 20:29 SSW 21 16.09 Cloudy OVC004 7 7     100% 4   1019.7        
May 12 15:56 SSW 26 16.09 Clear CLR 12 -2     39%     1020.3 1020.8      
May 12 04:56 Calm 16.09 Clear CLR 1 -3     78%     1023 1023.4      
May 11 09:56 NW 15 16.09 Clear CLR 11 -1     46%     1011.9 1012.1      
Jun 11 23:56 WSW 9 16.09 Clear   17 13     80%     1010.5 1010.9      
Notice The following observation data may not be complete
Jun 11 10:56   16.09 Clear CLR   15      %     1011.2 1011.5      
Jun 10 19:56 SSW 15 16.09 Clear CLR 15 11     75%     1014.6 1014.9      
Jun 09 05:56 E 9 16.09 Cloudy FEW050 BKN090 OVC110 11 7     79%     1007.5 1007.7 0    
Jun 08 08:56 SSW 17 16.09 Clear CLR 17 9     62%     1015.9 1016.2      
Jun 07 10:56 NNE 8 16.09 Clear CLR 18 5     42%     1013.6 1013.8      
Jun 06 03:12 NE 15 16.09 Mostly Cloudy BKN015 8 5     81% 5   1015.6